Location: Drouwen
(52.9559°N, 6.7974°E)
Time: 08:07:33
(UTC+00:00)

GRACE-FO 2 - Pass Details

Date: 15 May 2026
Orbit: 442 x 460 km, 89.0° (Epoch: 7 June)

Event Time Altitude Azimuth Distance (km) Brightness Sun altitude
Exits shadow 21:36:26 22° 186° (S) 1,068 5.8 -14.0°
Maximum altitude 21:38:36 78° 271° (W) 479 4.5 -14.1°
Drops below altitude 10° 21:42:07 10° 358° (N) 1,623 8.3 -14.4°
Sets 21:44:12 0° 360° (N) 2,502 9.4 -14.5°
